Evergreen, AL

3:33 PM CST on December 14, 2019 (GMT -0600)
Middleton

Weather History for KGZH - November, 2019

Change the Weather History Date:

Thursday, November 14, 2019

  Actual Average (KPRN) Record (KPRN)
Temperature  
Mean Temperature 44 °F -  
Max Temperature 50 °F 69 °F 84 °F (1993)
Min Temperature 39 °F 43 °F 25 °F (1968)
Degree Days  
Heating Degree Days 20    
Moisture  
Dew Point 37 °F    
Average Humidity 74    
Maximum Humidity 87    
Minimum Humidity 61    
Precipitation  
Precipitation 0.11 in - - ()
Sea Level Pressure  
Sea Level Pressure 30.23 in    
Wind  
Wind Speed 3 mph (North)    
Max Wind Speed 9 mph    
Max Gust Speed -    
Visibility 10 miles    
Events Rain    
Averages and records for this station are not official NWS values.
T = Trace of Precipitation, MM = Missing Value Source: NWS Daily Summary

Daily Weather History Graph

Daily Weather History Graph

Search for Another Location

Airport or City:

Astronomy

Nov. 14, 2019 Rise Set
Actual Time 6:14 AM CST 4:50 PM CST
Civil Twilight 5:49 AM CST 5:15 PM CST
Nautical Twilight 5:19 AM CST 5:45 PM CST
Astronomical Twilight 4:50 AM CST 6:13 PM CST
Moon 6:40 PM CST 8:05 AM CST
Length of Visible Light 11h 26m
Length of Day
10h 35m
Waning Gibbous, 95% of the Moon is Illuminated
Nov 14
Waning Gibbous
Nov 19
Last Quarter
Nov 26
New
Dec 4
First Quarter
Dec 11
Full

Hourly Weather History & Observations

Time (CST) Temp. Windchill Dew Point Humidity Pressure Visibility Wind Dir Wind Speed Gust Speed Precip Events Conditions
12:53 AM 39.0 °F - 32.0 °F 76% 30.25 in 10.0 mi Calm Calm - N/A   Clear
1:53 AM 39.9 °F - 34.0 °F 79% 30.25 in 10.0 mi Calm Calm - N/A   Clear
2:53 AM 41.0 °F - 32.0 °F 70% 30.23 in 10.0 mi Calm Calm - N/A   Clear
3:53 AM 41.0 °F 39.0 °F 32.0 °F 70% 30.23 in 10.0 mi North 3.5 mph - N/A   Clear
4:53 AM 42.1 °F 40.2 °F 32.0 °F 67% 30.24 in 10.0 mi North 3.5 mph - N/A   Clear
5:53 AM 42.1 °F 39.2 °F 32.0 °F 67% 30.24 in 10.0 mi NNE 4.6 mph - N/A   Clear
6:53 AM 42.1 °F - 33.1 °F 70% 30.25 in 10.0 mi Calm Calm - N/A   Clear
7:53 AM 43.0 °F 41.3 °F 33.1 °F 68% 30.26 in 10.0 mi North 3.5 mph - N/A   Clear
8:53 AM 45.0 °F 41.8 °F 34.0 °F 65% 30.27 in 10.0 mi NNE 5.8 mph - N/A   Clear
9:53 AM 46.9 °F - 35.1 °F 63% 30.27 in 10.0 mi NNE 5.8 mph - N/A   Scattered Clouds
10:53 AM 48.9 °F - 36.0 °F 61% 30.27 in 10.0 mi North 5.8 mph - N/A   Overcast
11:53 AM 50.0 °F - 37.0 °F 61% 30.23 in 10.0 mi North 8.1 mph - N/A   Overcast
12:53 PM 50.0 °F - 37.0 °F 61% 30.21 in 10.0 mi NE 8.1 mph - N/A   Overcast
1:53 PM 48.9 °F - 39.0 °F 69% 30.22 in 10.0 mi North 4.6 mph - 0.00 in Rain Light Rain
2:53 PM 48.0 °F - 39.0 °F 71% 30.21 in 10.0 mi North 4.6 mph - 0.00 in   Overcast
4:53 PM 46.0 °F 43.9 °F 39.0 °F 76% 30.22 in 10.0 mi NE 4.6 mph - 0.02 in Rain Light Rain
5:53 PM 45.0 °F 42.6 °F 39.9 °F 82% 30.23 in 10.0 mi North 4.6 mph - 0.00 in Rain Light Rain
6:53 PM 45.0 °F 42.6 °F 39.9 °F 82% 30.22 in 10.0 mi North 4.6 mph - 0.01 in   Overcast
7:53 PM 45.0 °F 41.8 °F 39.9 °F 82% 30.22 in 10.0 mi North 5.8 mph - 0.02 in Rain Light Rain
8:42 PM 45.0 °F 42.6 °F 41.0 °F 86% 30.23 in 8.0 mi North 4.6 mph - 0.03 in Rain Light Rain
8:50 PM 44.6 °F 40.7 °F 41.0 °F 87% 30.23 in 8.0 mi NNW 6.9 mph - 0.04 in Rain Light Rain
8:53 PM 45.0 °F 41.8 °F 41.0 °F 86% 30.23 in 8.0 mi NNW 5.8 mph - 0.04 in Rain Light Rain
9:49 PM 44.6 °F 39.7 °F 41.0 °F 87% 30.21 in 10.0 mi NNE 9.2 mph - 0.02 in   Overcast
10:53 PM 46.0 °F 43.1 °F 41.0 °F 83% 30.22 in 8.0 mi North 5.8 mph - 0.01 in Rain Light Rain
11:53 PM 46.0 °F 43.9 °F 42.1 °F 86% 30.21 in 10.0 mi NNW 4.6 mph - 0.01 in   Overcast